TimeEDT,TemperatureF,Dew PointF,Humidity,Sea Level PressureIn,VisibilityMPH,Wind Direction,Wind SpeedMPH,Gust SpeedMPH,PrecipitationIn,Events,Conditions,WindDirDegrees,DateUTC
12:00 AM,62.6,50.0,63,30.32,15.0,South,6.9,-,N/A,,Clear,190,2013-05-02 04:00:00
1:00 AM,60.8,50.0,68,30.33,15.0,South,8.1,-,N/A,,Clear,180,2013-05-02 05:00:00
2:00 AM,60,49,59,30.33,15,South,6.9,,,,Clear,170,2013-05-02 06:00:00
2:00 AM,60.8,50.0,68,30.33,15.0,South,6.9,-,N/A,,Clear,170,2013-05-02 06:00:00
3:00 AM,59.0,48.2,67,30.32,15.0,South,4.6,-,N/A,,Clear,170,2013-05-02 07:00:00
4:00 AM,57.2,48.2,72,30.33,15.0,SSE,5.8,-,N/A,,Clear,150,2013-05-02 08:00:00
5:00 AM,57.2,46.4,67,30.33,15.0,SE,5.8,-,N/A,,Clear,130,2013-05-02 09:00:00
6:00 AM,51.8,44.6,76,30.34,15.0,East,4.6,-,N/A,,Clear,100,2013-05-02 10:00:00
7:00 AM,55.4,46.4,72,30.35,15.0,ESE,5.8,-,N/A,,Partly Cloudy,120,2013-05-02 11:00:00
8:00 AM,62,43,38,30.36,15,ESE,6.9,,,,Partly Cloudy,120,2013-05-02 12:00:00
8:00 AM,62.6,42.8,48,30.36,15.0,ESE,6.9,-,N/A,,Scattered Clouds,120,2013-05-02 12:00:00
9:00 AM,66.2,39.2,37,30.37,15.0,SE,5.8,-,N/A,,Partly Cloudy,130,2013-05-02 13:00:00
10:00 AM,69.8,42.8,38,30.37,15.0,SE,8.1,-,N/A,,Partly Cloudy,130,2013-05-02 14:00:00
11:00 AM,71.6,39.2,31,30.36,15.0,South,5.8,-,N/A,,Partly Cloudy,180,2013-05-02 15:00:00
12:00 PM,75.2,44.6,34,30.35,15.0,South,4.6,-,N/A,,Scattered Clouds,190,2013-05-02 16:00:00
1:00 PM,77.0,44.6,32,30.32,15.0,SSW,8.1,-,N/A,,Scattered Clouds,210,2013-05-02 17:00:00
2:00 PM,78,44,20,30.31,15,SSW,6.9,,,,Scattered Clouds,200,2013-05-02 18:00:00
2:00 PM,78.8,44.6,30,30.31,15.0,South,6.9,-,N/A,,Scattered Clouds,180,2013-05-02 18:00:00
3:00 PM,80.6,42.8,26,30.30,15.0,SW,12.7,-,N/A,,Scattered Clouds,220,2013-05-02 19:00:00
4:00 PM,78.8,41.0,26,30.29,15.0,SW,8.1,-,N/A,,Mostly Cloudy,230,2013-05-02 20:00:00
5:00 PM,80.6,44.6,28,30.27,15.0,SW,11.5,18.4,N/A,,Mostly Cloudy,230,2013-05-02 21:00:00
6:00 PM,78.8,42.8,28,30.27,15.0,SSW,9.2,-,N/A,,Mostly Cloudy,210,2013-05-02 22:00:00
7:00 PM,75.2,41.0,29,30.27,15.0,SW,6.9,-,N/A,,Mostly Cloudy,220,2013-05-02 23:00:00
8:00 PM,73,42,21,30.26,15,SW,3.5,,,,Clear,220,2013-05-03 00:00:00
8:00 PM,73.4,41.0,31,30.26,15.0,SW,3.5,-,N/A,,Mostly Cloudy,220,2013-05-03 00:00:00
9:00 PM,68.0,41.0,37,30.27,15.0,SSW,2.3,-,N/A,,Mostly Cloudy,200,2013-05-03 01:00:00
10:00 PM,68.0,41.0,37,30.27,15.0,South,6.9,-,N/A,,Mostly Cloudy,170,2013-05-03 02:00:00
11:00 PM,66.2,39.2,37,30.28,15.0,South,4.6,-,N/A,,Mostly Cloudy,170,2013-05-03 03:00:00